Flag for Italy

Past Weather in Catania, Italy — Yesterday and Last 2 Weeks

Now
70 °F

Sunny.


Feels Like: 70 °F
Forecast: 90 / 69 °F
Wind: 3 mph from West

Location: Catania / Fontanarossa
Current Time: Sep 24, 2020 at 8:40:27 am
Latest Report: Sep 24, 2020 at 7:50 am
Visibility: 10 mi
Pressure29.98 "Hg
Humidity: 94%
Dew Point: 68 °F
Location of CataniaLocation

Past Weather in Catania — Graph

°F

Catania Temperature Yesterday

Maximum temperature yesterday: 82 °F (at 11:50 am)
Minimum temperature yesterday: 68 °F (at 6:20 am)
Average temperature yesterday: 75 °F

High & Low Weather Summary for the Past Weeks

 TemperatureHumidityPressure
High90 °F (Sep 9, 2:50 pm)100% (Sep 12, 5:50 am)30.18 "Hg (Sep 12, 5:50 am)
Low64 °F (Sep 19, 5:50 am)36% (Sep 17, 3:20 pm)29.77 "Hg (Sep 17, 6:20 am)
Average76 °F76%29.98 "Hg
* Reported Sep 9 7:20 am — Sep 24 7:20 am, Catania. Weather by CustomWeather, © 2020

Note: Actual official high and low records may vary slightly from our data, if they occured in-between our weather recording intervals... More about our weather records

Catania Weather History for the Previous 24 Hours

Scroll right to see more
 ConditionsComfort  
Time TempWeatherWind HumidityBarometerVisibility
7:20 am
Thu, Sep 24
66 °FSunny.3 mph94%29.98 "Hg10 mi
6:50 am66 °FPassing clouds.3 mph94%29.95 "HgN/A
6:20 am73 °FClear.5 mph74%29.95 "Hg10 mi
5:50 am70 °FPassing clouds.6 mph83%29.95 "HgN/A
5:20 am72 °FClear.7 mph73%29.95 "Hg10 mi
4:50 am68 °FPassing clouds.7 mph94%29.95 "HgN/A
4:20 am68 °FPassing clouds.3 mph94%29.95 "HgN/A
3:20 am70 °FClear.8 mph94%29.95 "Hg10 mi
2:50 am70 °FClear.6 mph94%29.95 "Hg10 mi
2:20 am70 °FClear.1 mph94%29.95 "Hg10 mi
1:50 am70 °FClear.7 mph94%29.92 "Hg10 mi
1:20 am70 °FClear.9 mph94%29.95 "Hg10 mi
12:50 am70 °FClear.10 mph94%29.92 "Hg10 mi
12:20 am70 °FClear.10 mph94%29.95 "Hg10 mi
11:50 pm
Wed, Sep 23
70 °FClear.12 mph94%29.95 "Hg10 mi
11:20 pm70 °FClear.12 mph94%29.95 "Hg10 mi
10:50 pm70 °FClear.10 mph94%29.95 "Hg10 mi
10:20 pm70 °FClear.6 mph94%29.95 "Hg10 mi
9:50 pm72 °FClear.3 mph88%29.95 "Hg10 mi
9:20 pm70 °FPassing clouds.5 mph94%29.95 "HgN/A
8:50 pm72 °FClear.8 mph94%29.92 "Hg10 mi
8:20 pm72 °FClear.7 mph94%29.95 "HgN/A
7:50 pm72 °FClear.6 mph94%29.92 "HgN/A
7:20 pm72 °FLight rain. Passing clouds.8 mph88%29.95 "HgN/A
6:50 pm73 °FThunderstorms. Broken clouds.12 mph83%29.95 "Hg5 mi
6:20 pm75 °FThundershowers. Partly sunny.8 mph83%29.92 "HgN/A
5:50 pm75 °FLight rain. Scattered clouds.7 mph89%29.92 "HgN/A
5:20 pm79 °FThunderstorms. Broken clouds.10 mph94%29.89 "Hg2 mi
4:50 pm79 °FThundershowers. Scattered clouds.8 mph89%29.89 "HgN/A
4:20 pm81 °FThundershowers. Scattered clouds.9 mph84%29.89 "HgN/A
3:50 pm81 °FPassing clouds.9 mph84%29.89 "HgN/A
3:20 pm82 °FPassing clouds.9 mph74%29.89 "HgN/A
2:50 pm82 °FPassing clouds.8 mph74%29.89 "HgN/A
1:50 pm82 °FPassing clouds.7 mph70%29.92 "HgN/A
1:20 pm82 °FPassing clouds.7 mph70%29.92 "HgN/A
12:50 pm82 °FSunny.7 mph70%29.95 "Hg10 mi
12:20 pm82 °FSunny.8 mph70%29.95 "Hg10 mi
11:50 am82 °FSunny.7 mph70%29.95 "Hg10 mi
11:20 am81 °FPassing clouds.8 mph74%29.95 "HgN/A
10:50 am81 °FPassing clouds.5 mph74%29.95 "HgN/A
10:20 am81 °FPassing clouds.2 mph66%29.98 "HgN/A
9:50 am81 °FPassing clouds.2 mph66%29.98 "HgN/A
9:20 am77 °FScattered clouds.5 mph74%29.98 "HgN/A
8:50 am75 °FPassing clouds.1 mph78%29.95 "HgN/A
8:20 am73 °FScattered clouds.5 mph78%29.95 "HgN/A
Weather by CustomWeather, © 2020

See weather overview